Find Starlink 36898

NORAD ID: 68002 Int'l Des: 2026-039 Owner: SPXS Country: US Constellation: starlink operational
LEOCIRCULAR

当前视图

正在加载3D地球...

关于 Starlink 36898

正在加载描述...

即将过境

Passes for default location (London). Set your location on the main map for personalized predictions.

高度历史

Loading altitude history...

两行轨道根数

1 68002U 26039S 26151.42766427 .00024439 00000-0 89429-3 0 9996
2 68002 43.0003 301.9715 0001197 280.5620 79.5097 15.27594103 14352
Epoch: May 31, 2026 • Age: 11 hours

当前状态

高度 485.4 km
速度 7.63 km/s
星下点 36.92°N, 140.45°E
发射日期 Feb 27, 2026
运行时间 0.2 years
类型 internet

技术详情

分类 Payload
质量 575.00 kg
干质量 530.00 kg
总质量 575.00 kg
长度 0.30 m
直径 4.10 m
跨度 29.00 m
形状 Box + pan
制造商 SPXS
平台类型 Starlink V2MO
阶段状态 In Orbit
所有者/国家 SPXS/US

Most Searched